Waarnemingen

Advertentie
Mijn weer
Schaffen, België (6465): temperatuur & dauwpunt: 13.06.2019 01:00:00 - 19.06.2019 01:00:00 (CEST)Schaffen, België (6465): windsnelheid & windstoten: 13.06.2019 01:00:00 - 19.06.2019 01:00:00 (CEST)Schaffen, België (6465): windrichting: 13.06.2019 01:00:00 - 19.06.2019 01:00:00 (CEST)Schaffen, België (6465): luchtdruk: 13.06.2019 01:00:00 - 19.06.2019 01:00:00 (CEST)Schaffen, België (6465): zicht: 13.06.2019 01:00:00 - 19.06.2019 01:00:00 (CEST)
Datum & Tijd tt [°C] td [°C] ff [km/u] ff [kn] fx [km/u] fx [kn] dd ppp [hPa] vv [km]
19.06.2019 01:00:00 20,5 15,3 7 4 11 6 ZZO 1010,2 20
19.06.2019 00:00:00 21,7 14,4 4 2 7 4 N 1010,7 20
18.06.2019 23:00:00 23,5 14,2 4 2 - - N 1011,0 20
18.06.2019 22:00:00 24,0 13,1 4 2 4 2 N 1011,2 20
18.06.2019 21:00:00 25,4 12,8 4 2 7 4 N 1011,1 20
18.06.2019 20:00:00 26,6 13,5 4 2 - - N 1011,2 20
18.06.2019 19:00:00 - - - - - - - - -
18.06.2019 18:00:00 27,4 12,0 4 2 18 10 N 1012,1 20
18.06.2019 17:00:00 28,1 12,2 4 2 - - N 1012,6 20
18.06.2019 16:00:00 27,9 12,7 7 4 18 10 ZZO 1013,2 20
18.06.2019 15:00:00 27,5 11,5 4 2 14 8 N 1013,7 20
18.06.2019 14:00:00 26,4 13,6 4 2 - - N 1014,0 20
18.06.2019 13:00:00 26,2 13,5 4 2 14 8 N 1014,3 20
18.06.2019 12:00:00 25,1 13,5 7 4 14 8 NNO 1014,7 20
18.06.2019 11:00:00 23,2 14,8 4 2 - - N 1015,1 20
18.06.2019 10:00:00 22,0 14,3 4 2 7 4 N 1015,5 15
18.06.2019 09:00:00 20,3 14,6 4 2 11 6 N 1015,8 15
18.06.2019 08:00:00 18,2 14,6 4 2 - - N 1015,8 15
18.06.2019 07:00:00 15,5 13,8 4 2 7 4 N 1015,8 12
18.06.2019 06:00:00 15,1 13,5 4 2 4 2 N 1015,7 12
18.06.2019 05:00:00 15,9 13,5 2 1 - - - 1015,7 10
18.06.2019 04:00:00 15,5 12,9 4 2 7 4 N 1016,1 20
18.06.2019 03:00:00 16,7 13,1 4 2 7 4 N 1016,6 20
18.06.2019 02:00:00 17,3 12,8 7 4 - - NNW 1016,7 20
18.06.2019 01:00:00 18,5 12,1 7 4 11 6 NW 1016,8 20
18.06.2019 00:00:00 19,1 12,0 7 4 11 6 NW 1016,8 20
17.06.2019 23:00:00 21,3 11,5 4 2 - - N 1016,8 20
17.06.2019 22:00:00 22,3 11,7 4 2 4 2 N 1016,8 20
17.06.2019 21:00:00 25,2 12,1 4 2 4 2 N 1016,8 20
17.06.2019 20:00:00 25,0 11,8 4 2 - - N 1017,1 20
17.06.2019 19:00:00 25,8 11,6 4 2 11 6 N 1017,3 20
17.06.2019 18:00:00 26,2 11,5 4 2 18 10 N 1017,7 20
17.06.2019 17:00:00 25,6 11,1 7 4 - - Z 1018,2 20
17.06.2019 16:00:00 25,0 11,1 11 6 22 12 ZZO 1018,6 20
17.06.2019 15:00:00 25,3 12,2 11 6 22 12 Z 1019,0 20
17.06.2019 14:00:00 24,6 11,9 7 4 - - Z 1019,5 20
17.06.2019 13:00:00 24,0 11,4 7 4 22 12 Z 1019,8 20
17.06.2019 12:00:00 22,3 11,4 11 6 22 12 Z 1020,3 20
17.06.2019 11:00:00 22,1 11,7 11 6 - - ZZW 1020,7 20
17.06.2019 10:00:00 20,0 12,7 7 4 14 8 ZZO 1021,1 20
17.06.2019 09:00:00 17,7 12,8 4 2 11 6 N 1021,2 20
17.06.2019 08:00:00 15,2 12,6 7 4 - - Z 1021,2 15
17.06.2019 07:00:00 13,6 12,4 4 2 7 4 N 1021,1 12
17.06.2019 06:00:00 12,4 11,8 7 4 7 4 Z 1021,3 12
17.06.2019 05:00:00 12,4 11,7 4 2 - - N 1021,2 1,9
17.06.2019 04:00:00 12,6 12,0 7 4 7 4 N 1021,5 5
17.06.2019 03:00:00 13,5 12,5 4 2 7 4 N 1021,5 14
17.06.2019 02:00:00 14,3 12,1 4 2 - - N 1021,7 20
17.06.2019 01:00:00 15,4 11,7 4 2 7 4 N 1021,6 20
17.06.2019 00:00:00 16,2 11,7 4 2 7 4 N 1021,7 20
16.06.2019 23:00:00 17,7 11,3 4 2 - - N 1021,5 20
16.06.2019 22:00:00 18,6 11,4 4 2 11 6 N 1021,2 20
16.06.2019 21:00:00 18,7 12,0 11 6 18 10 WZW 1021,2 20
16.06.2019 20:00:00 20,3 11,4 7 4 - - N 1021,0 20
16.06.2019 19:00:00 20,7 10,6 7 4 18 10 ZW 1020,7 20
16.06.2019 18:00:00 21,8 12,0 11 6 22 12 ZW 1020,7 20
16.06.2019 17:00:00 20,4 10,9 7 4 - - ZW 1020,8 20
16.06.2019 16:00:00 21,3 11,2 11 6 22 12 ZW 1020,7 20
16.06.2019 15:00:00 19,8 11,2 14 8 25 14 ZZW 1020,8 20
16.06.2019 14:00:00 18,7 12,1 11 6 - - ZZW 1021,1 20
16.06.2019 13:00:00 18,2 11,4 14 8 29 16 ZZW 1021,0 20
16.06.2019 12:00:00 18,0 11,8 14 8 32 18 WZW 1020,8 20
16.06.2019 11:00:00 17,7 11,7 11 6 - - ZW 1020,3 10
16.06.2019 10:00:00 17,1 11,7 14 8 25 14 Z 1020,2 20
16.06.2019 09:00:00 16,2 11,5 11 6 22 12 ZZW 1020,0 20
16.06.2019 08:00:00 15,1 10,7 11 6 - - ZZW 1019,6 20
16.06.2019 07:00:00 13,8 10,1 7 4 14 8 Z 1019,5 20
16.06.2019 06:00:00 13,0 9,5 7 4 14 8 Z 1019,0 20
16.06.2019 05:00:00 13,5 9,5 7 4 - - N 1018,6 20
16.06.2019 04:00:00 12,8 10,0 4 2 14 8 N 1018,5 20
16.06.2019 03:00:00 13,8 10,3 4 2 14 8 N 1018,2 20
16.06.2019 02:00:00 12,9 12,0 4 2 - - N 1018,2 9
16.06.2019 01:00:00 13,7 12,7 7 4 7 4 Z 1018,1 10
16.06.2019 00:00:00 14,3 12,7 4 2 4 2 N 1017,5 16
15.06.2019 23:00:00 15,1 12,5 4 2 - - N 1016,7 20
15.06.2019 22:00:00 15,6 12,4 7 4 7 4 NW 1016,6 20
15.06.2019 21:00:00 18,0 12,3 7 4 29 16 NW 1016,1 20
15.06.2019 20:00:00 20,7 8,8 14 8 - - W 1015,6 20
15.06.2019 19:00:00 21,0 13,6 7 4 18 10 NW 1015,2 20
15.06.2019 18:00:00 21,1 13,1 14 8 22 12 W 1015,3 20
15.06.2019 17:00:00 20,6 12,8 7 4 - - WNW 1015,3 20
15.06.2019 16:00:00 21,2 12,3 11 6 25 14 WZW 1015,5 20
15.06.2019 15:00:00 20,5 13,4 14 8 32 18 W 1015,5 20
15.06.2019 14:00:00 19,1 13,7 18 10 - - W 1015,6 19
15.06.2019 13:00:00 17,5 14,5 11 6 18 10 WZW 1015,0 17
15.06.2019 12:00:00 17,6 14,5 7 4 11 6 ZW 1014,3 19
15.06.2019 11:00:00 17,0 14,4 4 2 - - N 1013,8 20
15.06.2019 10:00:00 15,9 14,4 11 6 22 12 W 1013,2 7
15.06.2019 09:00:00 14,2 13,7 11 6 22 12 WZW 1012,7 3,4
15.06.2019 08:00:00 13,7 13,3 5 3 - - N 1011,5 6
15.06.2019 07:00:00 14,1 13,7 11 6 18 10 WNW 1011,2 2,0
15.06.2019 06:00:00 14,8 14,5 8 4 14 8 W 1011,1 1,8
15.06.2019 05:00:00 15,3 14,7 4 2 - - N 1010,7 1,9
15.06.2019 04:00:00 15,4 14,7 4 2 11 6 N 1010,7 4,8
15.06.2019 03:00:00 16,2 14,2 4 2 14 8 N 1011,0 11
15.06.2019 02:00:00 16,6 14,4 7 4 - - NNO 1010,7 13
15.06.2019 01:00:00 17,7 14,0 14 8 22 12 N 1011,7 20
15.06.2019 00:00:00 19,2 13,4 11 6 18 10 N 1012,3 20
14.06.2019 23:00:00 19,6 12,8 11 6 - - N 1012,5 20
14.06.2019 22:00:00 20,2 12,8 7 4 11 6 NNW 1012,3 20
14.06.2019 21:00:00 21,9 12,7 7 4 11 6 NNW 1012,3 20
14.06.2019 20:00:00 23,2 13,1 4 2 - - N 1012,2 20
14.06.2019 19:00:00 24,3 11,9 4 2 14 8 N 1012,6 20
14.06.2019 18:00:00 24,2 13,1 4 2 14 8 N 1012,7 20
14.06.2019 17:00:00 23,7 11,7 11 6 - - ZZW 1013,2 20
14.06.2019 16:00:00 23,2 12,2 11 6 25 14 ZW 1013,8 20
14.06.2019 15:00:00 23,2 12,4 14 8 29 16 ZZW 1014,5 20
14.06.2019 14:00:00 21,8 12,7 18 10 - - Z 1014,7 20
14.06.2019 13:00:00 20,4 11,8 14 8 29 16 Z 1015,0 20
14.06.2019 12:00:00 19,4 11,0 18 10 29 16 Z 1014,7 20
14.06.2019 11:00:00 18,3 13,3 14 8 - - ZZO 1014,2 20
14.06.2019 10:00:00 14,3 12,3 7 4 11 6 OZO 1013,2 15
14.06.2019 09:00:00 14,3 10,7 4 2 11 6 N 1015,0 15
14.06.2019 08:00:00 13,1 10,9 7 4 - - Z 1014,2 15
14.06.2019 07:00:00 12,1 11,0 7 4 11 6 ZZO 1013,6 15
14.06.2019 06:00:00 11,8 10,6 4 2 7 4 N 1013,3 15
14.06.2019 05:00:00 11,6 10,7 7 4 - - ZZO 1013,1 15
14.06.2019 04:00:00 11,4 10,8 7 4 7 4 ZZO 1013,0 7
14.06.2019 03:00:00 12,0 10,9 4 2 4 2 N 1013,5 20
14.06.2019 02:00:00 12,6 10,8 4 2 - - N 1013,7 20
14.06.2019 01:00:00 13,3 10,6 4 2 4 2 N 1013,7 20
14.06.2019 00:00:00 14,0 10,7 4 2 7 4 N 1014,0 20
13.06.2019 23:00:00 14,3 10,5 7 4 - - NW 1013,6 20
13.06.2019 22:00:00 15,9 10,4 11 6 22 12 W 1012,6 20
13.06.2019 21:00:00 17,1 10,7 14 8 32 18 Z 1011,8 20
13.06.2019 20:00:00 17,8 9,8 18 10 - - Z 1011,3 20
13.06.2019 19:00:00 18,5 8,7 25 14 50 27 ZZW 1011,0 20
13.06.2019 18:00:00 17,5 10,9 7 4 43 23 ZW 1011,3 20
13.06.2019 17:00:00 18,9 8,6 25 14 - - Z 1011,2 20
13.06.2019 16:00:00 17,1 9,7 18 10 32 18 Z 1011,7 20
13.06.2019 15:00:00 16,9 8,9 25 14 43 23 ZZW 1012,0 20
13.06.2019 14:00:00 17,7 7,7 22 12 - - Z 1011,7 20
13.06.2019 13:00:00 17,5 7,6 25 14 47 25 ZZW 1012,2 20
13.06.2019 12:00:00 16,0 7,8 25 14 43 23 Z 1012,2 20
13.06.2019 11:00:00 15,3 8,1 29 16 - - Z 1012,1 20
13.06.2019 10:00:00 14,8 8,0 25 14 40 21 Z 1011,8 20
13.06.2019 09:00:00 14,5 9,0 22 12 36 19 Z 1011,7 20
13.06.2019 08:00:00 13,1 9,0 22 12 - - Z 1011,3 20
13.06.2019 07:00:00 12,1 9,1 14 8 22 12 Z 1011,3 20
13.06.2019 06:00:00 11,1 8,9 13 7 22 12 Z 1011,0 10
13.06.2019 05:00:00 11,5 8,9 14 8 - - Z 1010,6 20
13.06.2019 04:00:00 12,2 8,8 14 8 25 14 Z 1010,2 20
13.06.2019 03:00:00 12,1 8,4 14 8 22 12 Z 1010,1 20
13.06.2019 02:00:00 11,8 8,1 11 6 - - Z 1010,6 20
13.06.2019 01:00:00 12,1 8,1 7 4 14 8 Z 1010,5 20

tt = temperatuur
td = dauwpunt
ff = windsnelheid
fx = windstoten
dd = windrichting
ppp = luchtdruk
vv = zicht

Weerstations in de omgeving